SCP
0 0 0 0 0 0 0 0 0 0 0 0 0 0 0 0 0 0 0 0 0 0 0 0 0 0 0 0 0 0 0 0 0 0 0 0 0 0 0 0 0 0 0
0 0 0 0 0 0 0 0 0 0 0 0 0 0 0 0 0 0 0 0 0 0 0 0 0 0 0 0 0 0 0 0 0 0 0 0 0 0 0 0 0 0 0
0 0 0 0 0 0 0 0 0 0 0 0 0 0 0 0 0 0 0 0 0 0 0 0 0 0 0 0 0 0 0 0 0 0 0 0 0 0 0 0 0 0 0
0 0 0 0 0 0 0 0 0 0 0 0 0 0 0 0 0 0 0 0 0 0 0 0 0 0 0 0 0 0 0 0 0 0 0 0 0 0 0 0 0 0 0
0 0 0 0 0 0 0 0 0 0 0 0 0 0 0 0 0 0 0 0 0 0 0 0 0 0 0 0 0 0 0 0 0 0 0 0 0 0 0 0 0 0 0
0 0 0 0 0 0 0 0 0 0 0 0 0 0 0 0 0 0 0 0 0 0 0 0 0 0 0 0 0 0 0 0 0 0 0 0 0 0 0 0 0 0 0
0 0 0 0 0 0 0 0 0 0 0 0 0 0 0 0 0 0 0 0 0 0 0 0 0 0 0 0 0 0 0 0 0 0 0 0 0 0 0 0 0 0 0
0 0 0 0 0 0 0 0 0 0 0 0 0 0 0 0 0 0 0 0 0 0 0 0 0 0 0 0 0 0 0 0 0 0 0 0 0 0 0 0 0 0 0
0 0 0 0 0 0 0 0 0 0 0 0 0 0 0 0 0 0 0 0 0 0 0 0 0 0 0 0 0 0 0 0 0 0 0 0 0 0 0 0 0 0 0
0 0 0 0 0 0 0 0 0 0 0 0 0 0 0 0 0 0 0 0 0 0 0 0 0 0 0 0 0 0 0 0 0 0 0 0 0 0 0 0 0 0 0
0 0 0 0 0 0 0 0 0 0 0 0 0 0 0 0 0 0 0 0 0 0 0 0 0 0 0 0 0 0 0 0 0 0 0 0 0 0 0 0 0 0 0
0 0 0 0 0 0 0 0 0 0 0 0 0 0 0 0 0 0 0 0 0 0 0 0 0 0 0 0 0 0 0 0 0 0 0 0 0 0 0 0 0 0 0
0 0 0 0 0 0 0 0 0 0 0 0 0 0 0 0 0 0 0 0 0 0 0 0 0 0 0 0 0 0 0 0 0 0 0 0 0 0 0 0 0 0 0
0 0 0 0 0 0 0 0 0 0 0 0 0 0 0 0 0 0 0 0 0 0 0 0 0 0 0 0 0 0 0 0 0 0 0 0 0 0 0 0 0 0 0
0 0 0 0 0 0 0 0 0 0 0 0 0 0 0 0 0 0 0 0 0 0 0 0 0 0 0 0 0 0 0 0 0 0 0 0 0 0 0 0 0 0 0
0 0 0 0 0 0 0 0 0 0 0 0 0 0 0 0 0 0 0 0 0 0 0 0 0 0 0 0 0 0 0 0 0 0 0 0 0 0 0 0 0 0 0
0 0 0 0 0 0 0 0 0 0 0 0 0 0 0 0 0 0 0 0 0 0 0 0 0 0 0 0 0 0 0 0 0 0 0 0 0 0 0 0 0 0 0
0 0 0 0 0 0 0 0 0 0 0 0 0 0 0 0 0 0 0 0 0 0 0 0 0 0 0 0 0 0 0 0 0 0 0 0 0 0 0 0 0 0 0
0 0 0 0 0 0 0 0 0 0 0 0 0 0 0 0 0 0 0 0 0 0 0 0 0 0 0 0 0 0 0 0 0 0 0 0 0 0 0 0 0 0 0
0 0 0 0 0 0 0 0 0 0 0 0 0 0 0 0 0 0 0 0 0 0 0 0 0 0 0 0 0 0 0 0 0 0 0 0 0 0 0 0 0 0 0
0 0 0 0 0 0 0 0 0 0 0 0 0 0 0 0 0 0 0 0 0 0 0 0 0 0 0 0 0 0 0 0 0 0 0 0 0 0 0 0 0 0 0
0 0 0 0 0 0 0 0 0 0 0 0 0 0 0 0 0 0 0 0 0 0 0 0 0 0 0 0 0 0 0 0 0 0 0 0 0 0 0 0 0 0 0
0 0 0 0 0 0 0 0 0 0 0 0 0 0 0 0 0 0 0 0 0 0 0 0 0 0 0 0 0 0 0 0 0 0 0 0 0 0 0 0 0 0 0
0 0 0 0 0 0 0 0 0 0 0 0 0 0 0 0 0 0 0 0 0 0 0 0 0 0 0 0 0 0 0 0 0 0 0 0 0 0 0 0 0 0 0
0 0 0 0 0 0 0 0 0 0 0 0 0 0 0 0 0 0 0 0 0 0 0 0 0 0 0 0 0 0 0 0 0 0 0 0 0 0 0 0 0 0 0
0 0 0 0 0 0 0 0 0 0 0 0 0 0 0 0 0 0 0 0 0 0 0 0 0 0 0 0 0 0 0 0 0 0 0 0 0 0 0 0 0 0 0
Wind_Speed
9 5 5 5 4 5 8 11 13 13 12 10 9 8 7 6 6 6 8 8 8 7 7 6 6 6 6 5 5 3 5 4 4 4 5 4 2 2 1 0 1 2 4
6 5 5 5 5 6 9 11 12 11 10 9 6 5 7 6 6 6 6 6 7 7 7 7 5 5 5 6 6 5 3 4 4 3 3 5 6 4 3 2 2 3 5
11 9 8 8 6 7 10 11 12 11 11 12 10 10 7 6 5 5 4 5 7 8 7 7 6 6 5 5 5 5 4 3 3 3 3 2 3 5 5 4 3 3 4
12 10 10 9 9 7 8 10 11 12 13 14 14 15 9 7 5 4 4 5 6 7 7 7 7 6 5 5 4 4 3 2 2 2 1 1 3 3 6 4 3 3 6
13 13 14 12 8 8 9 11 11 12 13 12 15 13 9 7 6 6 8 6 5 6 7 6 6 6 5 5 4 4 3 1 1 1 2 2 2 2 3 7 5 5 4
13 12 10 9 8 8 9 11 13 12 11 11 11 13 15 14 12 8 7 5 4 5 6 6 6 5 4 4 3 2 2 1 0 1 1 1 2 2 3 5 9 9 6
10 11 13 14 13 13 12 12 14 12 10 11 10 11 14 14 13 10 8 6 4 3 4 5 5 4 4 3 3 2 2 1 1 2 2 2 3 3 3 5 8 10 6
9 13 16 17 16 16 14 14 14 12 10 10 9 9 10 8 7 7 7 6 4 4 5 5 5 4 3 3 2 1 2 1 2 3 3 3 4 3 3 3 6 12 6
12 14 14 14 15 16 14 14 14 12 11 10 11 10 9 10 9 8 7 5 5 5 6 5 5 3 3 2 2 1 3 3 3 4 4 4 4 4 4 4 4 6 11
12 13 13 12 12 12 10 10 12 13 11 11 10 9 9 10 10 9 8 6 6 6 6 5 4 3 2 2 2 2 3 3 3 3 5 5 4 4 4 4 5 6 10
13 13 12 11 12 11 11 11 12 13 12 11 11 12 10 10 10 8 7 6 6 6 6 4 3 3 2 3 3 3 4 4 5 5 5 7 6 5 5 4 5 7 8
9 11 12 12 13 13 12 11 11 12 11 11 12 12 11 10 10 8 7 6 6 5 5 4 3 3 3 3 3 4 5 5 6 7 7 8 7 7 5 5 7 8 8
11 12 12 12 12 13 12 11 11 13 12 12 13 12 10 10 9 7 7 6 6 6 5 4 3 3 4 4 4 4 5 5 6 6 7 8 8 8 7 7 8 9 9
12 12 11 10 11 12 12 12 11 12 12 12 12 11 9 8 8 7 6 6 6 5 4 3 3 3 4 4 5 5 4 4 5 6 7 7 8 9 9 9 8 8 8
12 12 12 11 12 12 11 12 12 11 12 12 11 9 8 8 7 7 6 6 5 5 3 3 3 4 4 4 6 4 3 3 5 6 7 8 12 15 13 11 9 9 10
12 12 12 13 13 13 13 12 11 10 11 12 10 9 8 8 7 7 6 6 5 4 3 4 4 4 4 11 14 11 3 3 5 7 7 9 10 14 20 24 24 21 16
12 13 13 13 12 13 14 13 11 11 11 11 10 8 8 8 7 6 6 5 4 3 3 4 4 4 7 13 15 16 7 4 6 8 8 9 11 16 11 18 22 17 19
12 12 12 12 11 11 12 12 12 11 11 10 9 8 8 7 6 6 5 4 2 3 2 3 4 5 8 15 16 17 7 6 7 8 9 10 10 12 17 14 11 8 10
10 11 11 12 13 13 14 14 12 11 11 10 8 7 7 7 6 5 4 2 2 2 2 3 4 5 8 14 17 17 5 6 8 8 9 11 10 20 26 15 11 11 11
12 13 13 14 13 12 13 15 12 11 10 9 8 7 7 7 6 5 3 2 2 2 3 4 4 5 6 13 17 18 5 6 7 6 7 14 19 24 25 13 10 13 14
13 14 14 12 11 12 14 14 12 10 9 9 9 8 7 7 6 4 2 2 2 3 4 5 5 6 8 12 17 19 8 7 8 8 6 8 23 25 24 20 10 16 19
13 13 14 12 9 10 14 14 10 8 10 10 9 7 6 5 5 4 3 3 3 4 4 4 6 4 6 10 14 19 18 17 9 9 7 11 24 24 22 16 19 24 19
11 11 15 14 9 8 12 14 8 9 10 10 8 7 6 5 4 3 3 2 2 3 4 4 5 5 5 7 17 19 21 21 12 9 19 22 22 20 14 18 22 17 9
11 12 14 14 10 9 11 12 10 9 10 9 7 5 5 4 3 3 2 2 2 3 4 4 5 6 6 6 6 7 8 13 12 9 13 18 18 15 17 15 12 9 9
9 10 12 13 11 10 10 8 8 9 9 7 6 5 4 3 2 2 2 2 2 4 5 3 4 6 6 10 19 14 9 9 10 12 6 7 8 8 9 9 9 9 10
10 11 12 12 10 10 9 7 7 8 8 6 4 3 3 2 2 2 3 6 6 11 12 12 11 9 13 19 19 20 20 20 20 13 8 8 8 9 11 11 11 11 10
Wind_Direction
257 255 226 198 170 153 147 148 151 147 140 135 131 126 116 107 95 92 99 104 106 102 95 93 80 74 73 59 41 36 24 11 357 354 336 336 339 293 287 6 348 17 27
252 224 203 190 189 167 155 151 151 151 143 136 126 119 118 106 92 94 92 97 101 98 95 93 89 84 82 62 47 43 36 12 17 21 0 347 339 337 344 327 312 9 17
234 214 199 198 189 177 164 154 150 146 136 128 118 116 106 103 103 100 86 82 92 91 95 96 94 83 80 73 59 50 55 18 0 34 51 18 309 306 310 307 327 356 353
219 204 192 192 189 176 156 147 147 145 143 140 141 143 142 140 141 132 114 94 87 92 93 93 89 83 78 74 63 62 56 59 9 344 9 228 232 281 308 298 299 323 319
210 200 194 189 170 155 152 148 144 148 151 150 149 144 131 120 120 115 110 98 86 86 89 88 85 81 77 75 64 58 53 82 108 315 313 314 296 248 271 291 304 306 279
206 198 175 150 145 148 150 150 148 150 151 146 145 142 137 136 136 132 123 111 97 83 84 86 83 80 76 70 62 55 48 40 349 278 255 249 269 277 270 283 304 304 291
193 172 160 161 161 161 160 156 152 150 147 141 139 142 142 143 144 141 134 127 112 99 91 87 82 75 71 70 57 38 7 331 318 291 266 247 241 236 247 280 302 302 292
181 178 176 172 167 164 162 159 155 148 143 137 129 125 127 127 127 126 125 118 116 117 107 93 84 75 64 57 38 4 318 314 300 287 278 263 254 238 240 263 304 312 300
185 182 177 172 165 163 164 159 150 142 137 131 124 121 121 122 122 114 105 107 113 110 98 90 83 67 49 32 10 331 316 311 287 277 272 258 251 241 241 246 259 287 303
188 179 171 163 157 151 140 139 140 137 129 125 124 121 117 117 117 112 111 110 103 98 95 85 75 55 33 10 356 324 313 312 296 276 277 269 254 245 242 242 251 254 275
183 170 156 143 133 128 128 128 126 124 121 118 116 116 113 111 108 108 110 110 103 98 92 84 68 41 17 359 354 328 316 314 305 300 292 281 270 254 246 245 254 258 262
144 137 133 130 130 128 126 126 126 123 120 119 116 114 113 111 108 108 110 110 104 95 91 81 60 27 5 352 343 324 323 313 306 302 300 292 291 269 259 258 260 262 261
124 126 128 132 132 128 126 125 124 122 120 119 117 116 114 111 111 113 113 107 101 90 79 68 46 13 348 336 325 314 310 308 308 308 304 299 296 287 275 267 268 267 274
133 133 133 131 130 126 127 126 122 124 123 120 119 117 116 116 118 116 110 103 98 88 74 59 34 0 336 325 313 307 305 316 318 309 302 300 295 284 277 277 271 280 286
146 145 141 136 130 126 127 127 127 126 125 121 119 118 118 117 114 109 104 97 89 82 70 52 21 359 337 318 312 300 294 305 307 302 295 295 305 310 308 309 307 302 297
157 149 145 142 140 138 136 132 130 127 124 122 122 123 121 116 111 108 103 94 83 70 52 33 9 350 334 322 325 324 288 282 297 298 293 291 297 305 316 314 309 306 307
160 156 154 150 146 144 142 138 132 124 119 120 123 124 119 113 111 109 98 89 80 60 38 13 351 327 316 327 328 322 320 293 291 290 293 303 308 316 300 298 303 306 308
156 150 145 138 136 132 130 124 123 122 120 120 120 120 116 111 108 100 93 85 69 46 20 343 330 325 325 333 327 323 328 295 285 285 289 294 296 297 302 302 307 293 292
143 138 135 135 135 134 132 125 119 118 118 120 120 118 116 114 108 100 92 78 57 27 342 325 333 329 320 328 326 328 306 290 289 289 294 305 301 304 313 317 309 305 306
119 123 124 126 127 130 129 122 122 120 122 121 115 111 111 112 110 107 95 73 56 355 338 333 327 316 307 320 328 328 303 297 298 295 294 312 315 313 320 320 315 315 310
110 117 120 121 126 128 123 118 119 118 117 111 106 102 105 110 113 105 96 75 36 5 349 328 317 310 312 324 328 328 326 314 316 317 312 305 317 320 324 326 319 308 316
104 111 111 108 108 118 118 114 111 111 109 107 104 103 104 107 108 102 84 58 29 1 337 321 315 300 301 320 324 330 330 328 321 317 312 310 321 327 328 327 317 321 328
105 107 111 106 95 99 114 114 112 114 110 106 107 108 101 89 88 81 61 36 10 345 319 311 306 308 307 314 326 328 328 328 325 313 316 321 327 330 328 319 323 329 321
104 110 108 104 93 85 96 110 117 115 113 113 113 111 104 89 67 50 31 15 340 319 306 302 308 309 313 309 306 306 315 323 321 311 315 325 327 327 323 322 322 316 310
97 98 103 104 102 100 100 107 115 117 113 112 112 105 95 87 55 24 353 329 282 281 308 300 302 318 315 317 325 329 324 324 319 325 323 321 324 324 322 320 318 318 319
101 100 102 107 107 106 103 105 114 119 120 117 111 102 92 71 46 8 335 324 320 324 328 329 327 320 320 324 329 331 331 333 332 335 325 322 322 321 321 320 319 317 315